Orbital Elements at Epoch 2459000.5 (2020-May-31.0) TDB
Reference: JPL 17 (heliocentric ecliptic J2000)
Element | Value | Uncertainty (1-sigma) | Units |
e | .06444169020289761 | 5.1682e-08 | |
a | 2.781939917688013 | 2.0451e-08 | au |
q | 2.602667007349287 | 1.5533e-07 | au |
i | 5.392173915912327 | 4.5882e-06 | deg |
node | 124.1460628874914 | 4.9308e-05 | deg |
peri | 287.2043437305109 | 6.7286e-05 | deg |
M | 256.4154064650694 | 4.9031e-05 | deg |
tp | 2459488.155033832483 (2021-Sep-30.65503383) | 0.00023361 | TDB |
period | 1694.806208034146 4.64 | 1.8689e-05 5.117e-08 | d yr |
n | .2124136661132332 | 2.3423e-09 | deg/d |
Q | 2.961212828026738 | 2.1769e-08 | au |
|
| | Orbit Determination Parameters
Additional Information
|